Tracking 29892 objects as of 21-Nov-2024
HD Live streaming from Space Station
objects crossing your sky now

SAUDISAT 1B

Track SAUDISAT 1B now!
10-day predictions
SAUDISAT 1B is classified as:


NORAD ID: 26549
Int'l Code: 2000-057E
Perigee: 590.8 km
Apogee: 629.0 km
Inclination: 64.6 °
Period: 96.7 minutes
Semi major axis: 6980 km
RCS: 0.096 m2 (small)
Launch date: September 26, 2000
Source: Saudi Arabia (SAUD)
Launch site: TYURATAM MISSILE AND SPACE COMPLEX (TTMTR)

Uplink (MHz):
Downlink (MHz): 436.075
Beacon (MHz):
Mode: 9600bps FSK
Call sign: SASAT2-11 12
Status: Inactive


Uplink (MHz):
Downlink (MHz): 436.075
Beacon (MHz):
Mode: 9600bps FSK
Call sign: SASAT2-11 12
Status: Inactive

Your satellite tracking list
Your tracking list is empty




NASA's NSSDC Master Catalog

Two Line Element Set (TLE):
1 26549U 00057E   24325.46012691  .00002615  00000-0  29531-3 0  9990
2 26549  64.5513 349.9751 0027325 205.3545 154.6225 14.88456309306128
Source of the keplerian elements: AFSPC